Showing default

OPS 9326 (IDSCS 13), 2653

Orbit data source: Space-Track

OPS 9326 (IDSCS 13), 2653 is a payload satellite owned by USAF SSD (US) in GEO that was launched on Wed, 18 Jan 1967 UTC via a TITAN IIIC launch vehicle from the Air Force Eastern Test Range (AFETR). Payloads include a variety of satellites, spacecraft, and rockets equipped with specific instruments for various scientific and technological missions. These include communications satellites like Starlink; space stations such as the ISS; scientific satellites like the Hubble; Earth observation satellites from companies like Planet Labs, Umbra, and HawkEye 360; GPS; miniature CubeSats for education and research; and military/defense satellites.

Loading next visibility...
OPS 9326 (IDSCS 13) details
Identifier
2653, 1967-003F
Orbit
GEO
Last TLE update1 day ago
Origin
Flag of USUSAF SSD (US)
ManufacturerPhilco-Ford WDL
MissionNon-operational Defense Communications
Bus & MotorIDCSP, Unknown motor
Mass45 kg wet, 45 kg dry
Launch date (UTC)
1967-01-18 (58 years ago)
Launch vehicle
TITAN IIIC
Launch site
Air Force Eastern Test Range (AFETR)
Object type
Payload
Rocket body
Debris
Shape & HBRIco Poly, 0.9 m
Radar Cross Section0.926 m², Medium (>0.1 m² and < 1m²)

Expand to show TLE details & history

TLE from 1 day ago
0 OPS 9326 (IDSCS 13)
1 02653U 67003F   24355.27697114 -.00000097  00000-0  00000-0 0  9995
2 02653   7.1403  51.0241 0044902  49.8875 310.4341  1.07749332126838
Epoch: 2024-12-20T06:38Z
Definitive object data (Epoch: 2024-12-20T06:38:50.306Z)
Latitude-0.00001°
Longitude-138.09791°
Altitude33,694.789 km
Speed3.159 km/s
True Right ascension03h 23m 49s
True Declination0° 00' 00"
Sunlit
Object was in daylight at TLE epoch
Visualization TLE readout
Latitude5.87486°
Longitude-13.0672°
Altitude33,763.526 km
Speed3.153 km/s
Apparent Right ascension11h 44m 54s
Apparent Declination0° 03' 18"
Sunlit
Object is in daylight
Visualization observer readout
Local Sidereal Time11:37:06
Azimuth176.959° S
Elevation50.099°
Doppler factor1
Orbital elements
Apogee altitude33,994.116 km
Perigee altitude33,633.178 km
Semi-major axis40,191.784 km
Eccentricity0.0044902
Inclination7.1403°
RAAN51.0241°
Arg. of periapsis49.8875°
True anomaly310.04103°
Mean anomaly310.4341°
Eccentric anomaly310.23771°
Mean motion0.26936 °/min
BSTARUnknown
Orbital period1336.49 mins
Loading historical data...
2653 neighbors
Authenticating...
Loading maneuver chart data...
Loading historical data...
Loading historical data...
Loading historical data...
Loading historical data...
Loading historical data...
Loading historical data...
Loading historical data...

OPS 9326 (IDSCS 13) Visibility forecast

Observer location: undefined°, undefined

Span
Click to sort rows by Start time (UTC) header in descending order
Start Az.
Max El. time (UTC)
Max El. Az.
Max El.
End time (UTC)
End Az.
1440 mins2024-12-21 12:35:16.752Z176.96° S2024-12-21 12:35:16.752Z176.96° S37.487°2024-12-22 12:35:16.752Z137.318° SSE
|